Total_Precipitation_Accumulation
1.44 1.41 1.36 1.41 1.37 1.29 1.24 1.15 1.00 0.89 0.78 0.69 0.61 0.57 0.54 0.49 0.46 0.46 0.45 0.48 0.53 0.55 0.54 0.59 0.68 0.74 0.83 0.90 0.96 0.98 0.98 0.94 0.95 0.88 0.75 0.69 0.65 0.57 0.52 0.46 0.41 0.39 0.33
0.99 1.00 1.05 1.09 1.11 1.05 0.96 0.86 0.72 0.63 0.59 0.56 0.50 0.50 0.49 0.46 0.43 0.42 0.39 0.38 0.38 0.39 0.40 0.45 0.51 0.53 0.60 0.63 0.67 0.71 0.74 0.75 0.77 0.81 0.77 0.66 0.60 0.55 0.50 0.42 0.30 0.25 0.27
0.71 0.75 0.82 0.86 0.88 0.83 0.74 0.70 0.63 0.53 0.50 0.49 0.45 0.42 0.42 0.41 0.38 0.35 0.34 0.30 0.26 0.27 0.28 0.31 0.37 0.39 0.41 0.42 0.45 0.47 0.52 0.58 0.68 0.74 0.72 0.63 0.54 0.46 0.43 0.35 0.30 0.34 0.23
0.63 0.67 0.73 0.73 0.74 0.72 0.63 0.54 0.50 0.45 0.45 0.46 0.42 0.38 0.32 0.29 0.27 0.29 0.31 0.26 0.22 0.22 0.23 0.25 0.28 0.29 0.30 0.31 0.32 0.34 0.40 0.49 0.58 0.62 0.57 0.49 0.42 0.35 0.39 0.38 0.32 0.30 0.25
0.69 0.68 0.68 0.64 0.63 0.62 0.59 0.52 0.46 0.41 0.38 0.37 0.33 0.31 0.27 0.24 0.24 0.25 0.26 0.25 0.24 0.22 0.20 0.19 0.22 0.25 0.27 0.26 0.26 0.30 0.35 0.43 0.46 0.48 0.45 0.37 0.32 0.35 0.38 0.36 0.33 0.28 0.23
0.73 0.70 0.68 0.65 0.62 0.57 0.53 0.50 0.45 0.38 0.31 0.29 0.27 0.27 0.25 0.22 0.24 0.23 0.21 0.25 0.26 0.25 0.22 0.19 0.18 0.18 0.18 0.18 0.20 0.25 0.32 0.34 0.36 0.38 0.37 0.37 0.34 0.36 0.40 0.38 0.38 0.38 0.34
0.80 0.77 0.75 0.68 0.61 0.56 0.47 0.41 0.40 0.38 0.31 0.27 0.24 0.24 0.26 0.25 0.23 0.20 0.19 0.24 0.27 0.28 0.25 0.22 0.17 0.13 0.15 0.18 0.17 0.17 0.21 0.22 0.28 0.36 0.40 0.39 0.38 0.40 0.48 0.47 0.47 0.47 0.43
0.84 0.79 0.72 0.61 0.53 0.49 0.46 0.40 0.35 0.32 0.30 0.28 0.26 0.25 0.25 0.23 0.22 0.19 0.18 0.19 0.24 0.25 0.23 0.22 0.21 0.19 0.16 0.16 0.14 0.13 0.18 0.23 0.26 0.29 0.37 0.36 0.31 0.34 0.43 0.48 0.47 0.47 0.46
0.72 0.67 0.60 0.55 0.52 0.49 0.48 0.45 0.40 0.34 0.29 0.25 0.24 0.24 0.26 0.24 0.19 0.16 0.14 0.15 0.18 0.16 0.15 0.18 0.18 0.18 0.16 0.16 0.14 0.17 0.21 0.25 0.21 0.25 0.30 0.33 0.37 0.41 0.44 0.47 0.54 0.61 0.59
0.56 0.54 0.48 0.46 0.48 0.48 0.43 0.41 0.37 0.34 0.30 0.23 0.22 0.25 0.25 0.25 0.18 0.13 0.11 0.11 0.14 0.13 0.14 0.15 0.16 0.14 0.12 0.11 0.10 0.18 0.27 0.25 0.25 0.30 0.46 0.62 0.69 0.66 0.56 0.54 0.63 0.67 0.68
0.38 0.43 0.44 0.43 0.43 0.43 0.39 0.38 0.37 0.35 0.34 0.29 0.27 0.28 0.25 0.19 0.14 0.10 0.10 0.11 0.11 0.12 0.13 0.16 0.16 0.10 0.08 0.08 0.10 0.17 0.24 0.23 0.28 0.44 0.65 0.76 0.75 0.67 0.58 0.54 0.58 0.64 0.71
0.34 0.40 0.44 0.42 0.37 0.36 0.37 0.38 0.36 0.34 0.32 0.31 0.29 0.26 0.22 0.17 0.12 0.08 0.06 0.05 0.05 0.10 0.15 0.15 0.14 0.11 0.09 0.11 0.14 0.18 0.21 0.28 0.41 0.58 0.70 0.68 0.56 0.45 0.42 0.42 0.44 0.50 0.60
0.37 0.41 0.40 0.37 0.35 0.34 0.35 0.36 0.35 0.32 0.27 0.26 0.25 0.23 0.19 0.16 0.12 0.04 0.03 0.03 0.03 0.06 0.11 0.12 0.14 0.16 0.18 0.27 0.27 0.23 0.29 0.42 0.53 0.59 0.63 0.58 0.48 0.40 0.35 0.35 0.36 0.43 0.48
0.41 0.40 0.38 0.37 0.36 0.32 0.29 0.28 0.29 0.27 0.23 0.21 0.21 0.19 0.18 0.17 0.11 0.04 0.04 0.04 0.04 0.06 0.09 0.17 0.27 0.32 0.35 0.39 0.42 0.45 0.48 0.49 0.47 0.54 0.54 0.48 0.39 0.34 0.32 0.30 0.34 0.39 0.45
0.35 0.34 0.34 0.34 0.32 0.30 0.24 0.20 0.20 0.17 0.11 0.11 0.12 0.11 0.13 0.11 0.06 0.03 0.04 0.05 0.04 0.06 0.09 0.24 0.41 0.46 0.47 0.46 0.44 0.44 0.47 0.45 0.45 0.45 0.44 0.42 0.39 0.34 0.31 0.28 0.30 0.33 0.41
0.32 0.29 0.26 0.26 0.25 0.21 0.20 0.19 0.13 0.08 0.05 0.03 0.03 0.03 0.04 0.07 0.05 0.03 0.03 0.06 0.06 0.10 0.17 0.36 0.46 0.47 0.47 0.43 0.39 0.36 0.36 0.36 0.35 0.36 0.37 0.37 0.37 0.34 0.33 0.29 0.28 0.31 0.36
0.24 0.21 0.17 0.14 0.16 0.15 0.16 0.19 0.22 0.12 0.04 0.02 0.02 0.03 0.04 0.06 0.06 0.04 0.04 0.07 0.09 0.14 0.23 0.34 0.39 0.43 0.44 0.39 0.35 0.34 0.33 0.30 0.29 0.30 0.32 0.31 0.30 0.30 0.29 0.28 0.27 0.28 0.32
0.14 0.10 0.08 0.10 0.09 0.08 0.10 0.11 0.15 0.20 0.18 0.14 0.06 0.03 0.04 0.06 0.07 0.06 0.08 0.12 0.17 0.19 0.25 0.28 0.31 0.34 0.37 0.35 0.32 0.29 0.26 0.25 0.23 0.23 0.25 0.27 0.27 0.28 0.25 0.25 0.25 0.24 0.28
0.09 0.08 0.05 0.04 0.04 0.05 0.06 0.06 0.07 0.10 0.17 0.21 0.18 0.09 0.06 0.09 0.11 0.11 0.12 0.13 0.17 0.20 0.22 0.25 0.24 0.24 0.26 0.27 0.28 0.28 0.25 0.23 0.21 0.21 0.21 0.22 0.23 0.25 0.25 0.21 0.19 0.15 0.20
0.08 0.05 0.04 0.03 0.03 0.03 0.03 0.03 0.05 0.08 0.12 0.17 0.16 0.11 0.10 0.16 0.19 0.16 0.13 0.12 0.13 0.15 0.18 0.20 0.21 0.21 0.21 0.20 0.19 0.19 0.19 0.17 0.16 0.17 0.19 0.20 0.20 0.20 0.19 0.17 0.16 0.17 0.17
0.03 0.02 0.01 0.01 0.02 0.01 0.01 0.02 0.03 0.05 0.09 0.11 0.08 0.07 0.11 0.17 0.21 0.18 0.15 0.14 0.15 0.15 0.18 0.18 0.17 0.18 0.17 0.15 0.12 0.12 0.12 0.12 0.13 0.14 0.16 0.18 0.17 0.15 0.13 0.11 0.09 0.08 0.08
0.01 0.01 0.01 0.00 0.01 0.00 0.01 0.01 0.01 0.03 0.05 0.06 0.06 0.06 0.10 0.13 0.17 0.18 0.17 0.16 0.16 0.17 0.18 0.17 0.16 0.15 0.14 0.13 0.11 0.10 0.10 0.11 0.13 0.15 0.16 0.17 0.14 0.09 0.07 0.05 0.05 0.04 0.03
0.00 0.00 0.00 0.00 0.00 0.00 0.00 0.00 0.00 0.01 0.02 0.03 0.04 0.05 0.06 0.09 0.12 0.16 0.17 0.15 0.15 0.15 0.14 0.13 0.12 0.12 0.11 0.09 0.09 0.09 0.09 0.09 0.10 0.12 0.15 0.15 0.10 0.06 0.05 0.04 0.03 0.03 0.02
0.00 0.00 0.00 0.00 0.00 0.00 0.00 0.00 0.00 0.00 0.01 0.02 0.03 0.05 0.06 0.07 0.09 0.14 0.19 0.19 0.16 0.14 0.12 0.09 0.08 0.09 0.08 0.06 0.06 0.05 0.05 0.05 0.06 0.09 0.12 0.12 0.07 0.04 0.03 0.03 0.03 0.03 0.03
0.00 0.00 0.00 0.00 0.00 0.00 0.00 0.00 0.01 0.01 0.01 0.01 0.02 0.03 0.04 0.03 0.05 0.09 0.15 0.19 0.19 0.15 0.10 0.07 0.05 0.04 0.04 0.04 0.03 0.02 0.03 0.03 0.03 0.06 0.10 0.11 0.06 0.04 0.03 0.02 0.02 0.02 0.03
0.00 0.00 0.00 0.00 0.00 0.00 0.00 0.00 0.00 0.00 0.00 0.01 0.01 0.02 0.02 0.02 0.03 0.05 0.07 0.11 0.14 0.14 0.10 0.06 0.04 0.02 0.01 0.01 0.01 0.01 0.01 0.01 0.01 0.02 0.06 0.09 0.05 0.04 0.02 0.02 0.02 0.02 0.03